Simultaneous Nadir Overpasses (SNOs) Predictions

Prediction of SNOs between AQUA and METOP-B Satellite Orbit:

Table of predicted SNOs for the next 14.0 days since TLE Epoch: 2/26/2022
Index Date (AQUA) Time (AQUA) Lat,Lon (AQUA) SZA (AQUA ) Date (METOP-B) Time (METOP-B) Lat,Lon (METOP-B) SZA (METOP-B ) Distance(km) Time Diff (sec)
1 02/28/2022 05:12:40 -73.84, -83.76 98.10 02/28/2022 05:11:32 -73.81, -83.76 98.11 3.23 68
2 02/28/2022 06:02:08 73.87, 83.83 81.92 02/28/2022 06:02:10 73.88, 83.74 81.94 3.12 2
3 02/28/2022 06:51:36 -74.00,-108.83 97.95 02/28/2022 06:52:49 -74.04,-108.55 97.94 9.50 73
4 03/03/2022 00:46:48 -73.82, -17.23 99.20 03/03/2022 00:45:53 -73.83, -17.30 99.17 2.68 55
5 03/03/2022 01:36:17 73.90, 150.23 80.88 03/03/2022 01:36:31 73.90, 150.19 80.88 1.05 14
6 03/03/2022 02:25:54 -74.49, -43.52 98.49 03/03/2022 02:27:01 -74.50, -40.98 98.60 75.52 67
7 03/05/2022 20:20:57 -73.87, 49.14 100.24 03/05/2022 20:20:14 -73.85, 49.15 100.24 1.67 43
8 03/05/2022 21:10:25 73.90,-143.29 79.79 03/05/2022 21:10:52 73.92,-143.36 79.81 3.03 27
9 03/08/2022 15:55:04 -73.88, 115.58 101.32 03/08/2022 15:54:34 -73.87, 115.59 101.33 1.67 30
10 03/08/2022 16:44:32 73.92, -76.86 78.71 03/08/2022 16:45:12 73.93, -76.92 78.72 2.69 40
11 03/11/2022 10:39:33 73.21, 15.85 76.87 03/11/2022 10:38:27 73.16, 13.07 76.95 89.56 66
12 03/11/2022 11:29:11 -73.86,-177.90 102.45 03/11/2022 11:28:55 -73.88,-177.98 102.43 2.94 16
13 03/11/2022 12:18:40 73.95, -10.46 77.64 03/11/2022 12:19:33 73.94, -10.49 77.62 1.38 53



Historial Predications of SNOs between AQUA and METOP-B
